Home   Weather   Corpus Christi   Past weeks

Flag for USA Past Weather in Corpus Christi, Texas, USA — Yesterday and Last 2 Weeks

Now
71 °F

Sunny.


Feels Like: 77 °F
Forecast: 58 / 82 °F
Wind: 8 mph from North

Location: Corpus Christi International Airport

Current Time: Apr 23, 2017 at 8:41:06 pm

Latest Report: Apr 23, 2017 at 7:51 pm


Visibility: 10 mi

Pressure: 29.98 "Hg

Humidity: 41%

Dew Point: 46 °F

Location of Corpus ChristiLocation

Past Weather in Corpus Christi — Graph

°F

Corpus Christi Temperature Yesterday

Maximum temperature yesterday: 87 °F (at 3:51 pm)
Minimum temperature yesterday: 65 °F (at 11:51 pm)
Average temperature yesterday: 75 °F

High & Low Weather Summary for the Past Weeks

 TemperatureHumidityPressure
High87 °F (Apr 22, 3:51 pm)100% (Apr 12, 5:51 am)30.19 "Hg (Apr 12, 5:51 am)
Low58 °F (Apr 23, 4:51 am)31% (Apr 23, 4:51 pm)29.77 "Hg (Apr 21, 5:51 pm)
Average74 °F82%29.98 "Hg
* Reported Apr 8 6:51 pm — Apr 23 6:51 pm, Corpus Christi, Weather by CustomWeather, © 2017

Note: Actual official high and low records may vary slightly from our data, if they occured in-between our weather recording intervals... More about our weather records

Advertising

Corpus Christi Weather History for the Previous 24 Hours

Scroll right to see more
 ConditionsComfort  
Time TempWeatherWind HumidityBarometerVisibility
6:51 pm
Sun, Apr 23
76 °FSunny.12 mph32%29.97 "Hg10 mi
5:51 pm77 °FSunny.13 mph31%29.98 "Hg10 mi
4:51 pm77 °FSunny.15 mph31%30.00 "Hg10 mi
3:51 pm76 °FSunny.12 mph33%30.03 "Hg10 mi
2:51 pm74 °FPassing clouds.6 mph35%30.07 "Hg10 mi
1:51 pm73 °FPassing clouds.16 mph37%30.10 "Hg10 mi
12:51 pm71 °FPassing clouds.15 mph41%30.14 "Hg10 mi
11:51 am69 °FPassing clouds.15 mph41%30.17 "Hg10 mi
10:51 am64 °FScattered clouds.14 mph49%30.18 "Hg10 mi
9:51 am61 °FPartly sunny.17 mph58%30.19 "Hg10 mi
8:51 am60 °FPartly sunny.18 mph62%30.17 "Hg10 mi
7:51 am60 °FPartly sunny.16 mph65%30.15 "Hg10 mi
6:51 am59 °FOvercast.12 mph72%30.13 "Hg10 mi
5:51 am58 °FLight rain. Mostly cloudy.14 mph75%30.12 "Hg10 mi
4:51 am58 °FHeavy rain. Mostly cloudy.9 mph78%30.10 "Hg5 mi
3:51 am61 °FLight rain. Overcast.20 mph65%30.08 "Hg10 mi
2:51 am63 °FOvercast.23 mph58%30.07 "Hg10 mi
1:51 am64 °FOvercast.21 mph58%30.07 "Hg10 mi
12:51 am65 °FOvercast.23 mph56%30.07 "Hg10 mi
11:51 pm
Sat, Apr 22
65 °FOvercast.18 mph61%30.06 "Hg10 mi
10:51 pm67 °FPassing clouds.24 mph61%30.03 "Hg10 mi
9:51 pm69 °FPassing clouds.23 mph61%30.01 "Hg10 mi
8:51 pm73 °FPartly cloudy.20 mph64%29.96 "Hg10 mi
Weather by CustomWeather, © 2017

See weather overviewHow to use our weather pages